Springfield, OH

5:21 PM EST on November 21, 2017 (GMT -0500)
Springfield-Beckley Municipal

Weather History for KSGH - January, 2014

Change the Weather History Date:

Friday, January 31, 2014

  Actual Average (KFFO) Record (KFFO)
Temperature  
Mean Temperature 31 °F -  
Max Temperature 34 °F 36 °F 62 °F (2002)
Min Temperature 28 °F 20 °F -5 °F (2004)
Degree Days  
Heating Degree Days 34    
Moisture  
Dew Point 24 °F    
Average Humidity 77    
Maximum Humidity 93    
Minimum Humidity 41    
Precipitation  
Precipitation 0.00 in - - ()
Sea Level Pressure  
Sea Level Pressure 30.12 in    
Wind  
Wind Speed 9 mph (SW)    
Max Wind Speed 15 mph    
Max Gust Speed -    
Visibility 6 miles    
Events Snow    
Averages and records for this station are not official NWS values.
T = Trace of Precipitation, MM = Missing Value Source: NWS Daily Summary

Daily Weather History Graph

Daily Weather History Graph

Search for Another Location

Airport or City:

Trip Planner

Search our weather history database for the weather conditions in past years. The results will help you decide how hot, cold, wet, or windy it might be!

Date:

Astronomy

Jan. 31, 2014 Rise Set
Actual Time 7:44 AM EST 5:53 PM EST
Civil Twilight 7:15 AM EST 6:22 PM EST
Nautical Twilight 6:43 AM EST 6:54 PM EST
Astronomical Twilight 6:11 AM EST 7:26 PM EST
Moon 7:53 AM EST (1/31) 7:16 PM EST (1/31)
Length of Visible Light 11h 06m
Length of Day
10h 09m
New Moon, 1% of the Moon is Illuminated
Jan 31
New Moon
Feb 6
First Quarter
Feb 14
Full
Feb 22
Last Quarter
Mar 1
New

Hourly Weather History & Observations

Time (EST) Temp. Windchill Dew Point Humidity Pressure Visibility Wind Dir Wind Speed Gust Speed Precip Events Conditions
12:56 AM 31.1 °F 20.5 °F 10.0 °F 41% 30.02 in 9.0 mi SW 15.0 mph - N/A   Overcast
1:56 AM 32.0 °F 21.6 °F 11.1 °F 42% 30.02 in 9.0 mi SW 15.0 mph - N/A   Overcast
2:56 AM 32.0 °F 23.0 °F 12.0 °F 44% 30.04 in 9.0 mi SW 11.5 mph - N/A   Overcast
3:56 AM 32.0 °F 25.6 °F 13.1 °F 46% 30.04 in 9.0 mi SSW 6.9 mph - N/A   Overcast
4:56 AM 31.1 °F 23.7 °F 13.1 °F 47% 30.07 in 9.0 mi SSW 8.1 mph - N/A   Overcast
5:56 AM 31.1 °F 25.4 °F 13.1 °F 47% 30.07 in 9.0 mi SSW 5.8 mph - N/A   Clear
6:56 AM 31.1 °F 23.7 °F 13.1 °F 47% 30.09 in 9.0 mi SSW 8.1 mph - N/A   Clear
7:56 AM 31.1 °F 23.7 °F 14.0 °F 49% 30.11 in 8.0 mi SSW 8.1 mph - N/A   Partly Cloudy
8:56 AM 31.1 °F 23.7 °F 14.0 °F 49% 30.13 in 8.0 mi SSW 8.1 mph - N/A   Clear
9:56 AM 32.9 °F 23.7 °F 17.1 °F 52% 30.15 in 8.0 mi SSW 12.7 mph - N/A   Partly Cloudy
10:29 AM 30.2 °F 21.3 °F 24.8 °F 80% 30.13 in 2.5 mi SSW 10.4 mph - 0.00 in   Scattered Clouds
10:34 AM 30.2 °F 21.9 °F 26.6 °F 86% 30.13 in 1.8 mi SSW 9.2 mph - 0.00 in Snow Light Snow
10:46 AM 28.4 °F 20.4 °F 26.6 °F 93% 30.13 in 2.0 mi SW 8.1 mph - 0.00 in Snow Light Snow
10:56 AM 29.1 °F 22.1 °F 27.1 °F 92% 30.16 in 1.2 mi SSW 6.9 mph - 0.00 in Snow Light Snow
11:09 AM 28.4 °F 23.3 °F 26.6 °F 93% 30.12 in 1.0 mi SSW 4.6 mph - 0.00 in Snow Light Snow
11:21 AM 30.2 °F 23.4 °F 28.4 °F 93% 30.13 in 1.2 mi SW 6.9 mph - 0.00 in Snow Light Snow
11:49 AM 30.2 °F 22.6 °F 28.4 °F 93% 30.13 in 1.8 mi SW 8.1 mph - 0.00 in Snow Light Snow
11:56 AM 31.1 °F 24.5 °F 28.0 °F 88% 30.16 in 2.5 mi SW 6.9 mph - 0.00 in Snow Light Snow
12:08 PM 30.2 °F 22.6 °F 28.4 °F 93% 30.13 in 3.0 mi SW 8.1 mph - 0.00 in Snow Light Snow
12:11 PM 30.2 °F 23.4 °F 28.4 °F 93% 30.13 in 2.5 mi SW 6.9 mph - 0.00 in Snow Light Snow
12:22 PM 30.2 °F 24.3 °F 28.4 °F 93% 30.13 in 2.0 mi SW 5.8 mph - 0.00 in Snow Light Snow
12:34 PM 30.2 °F 24.3 °F 28.4 °F 93% 30.12 in 4.0 mi SW 5.8 mph - 0.00 in Snow Light Snow
12:56 PM 31.1 °F 23.7 °F 28.0 °F 88% 30.15 in 5.0 mi SSW 8.1 mph - 0.00 in Snow Light Snow
1:24 PM 32.0 °F 25.6 °F 28.4 °F 87% 30.12 in 6.0 mi WSW 6.9 mph - 0.00 in Snow Light Snow
1:47 PM 32.0 °F 25.6 °F 28.4 °F 87% 30.11 in 2.0 mi WSW 6.9 mph - 0.00 in Snow Light Snow
1:56 PM 32.0 °F 26.4 °F 28.0 °F 85% 30.15 in 2.5 mi West 5.8 mph - 0.00 in Snow Light Snow
2:03 PM 32.0 °F 26.4 °F 28.4 °F 87% 30.12 in 4.0 mi West 5.8 mph - 0.00 in Snow Light Snow
2:18 PM 32.0 °F 26.4 °F 28.4 °F 87% 30.11 in 5.0 mi West 5.8 mph - 0.00 in Snow Light Snow
2:56 PM 32.9 °F - 27.1 °F 79% 30.14 in 7.0 mi Calm Calm - 0.00 in   Clear
3:27 PM 33.8 °F 30.8 °F 26.6 °F 75% 30.12 in 7.0 mi WNW 3.5 mph - N/A   Mostly Cloudy
3:56 PM 34.0 °F - 28.0 °F 79% 30.15 in 7.0 mi Calm Calm - N/A   Overcast
4:35 PM 33.8 °F 27.7 °F 30.2 °F 87% 30.13 in 6.0 mi North 6.9 mph - N/A   Scattered Clouds
4:56 PM 32.9 °F 27.5 °F 30.0 °F 89% 30.17 in 6.0 mi NNW 5.8 mph - N/A   Clear
5:56 PM 32.0 °F - 30.0 °F 92% 30.16 in 5.0 mi Calm Calm - N/A   Overcast
6:56 PM 31.1 °F - 29.1 °F 92% 30.17 in 7.0 mi Calm Calm - N/A   Scattered Clouds
7:56 PM 31.1 °F 24.5 °F 29.1 °F 92% 30.16 in 7.0 mi East 6.9 mph - N/A   Clear
8:56 PM 31.1 °F 25.4 °F 27.1 °F 85% 30.16 in 8.0 mi ESE 5.8 mph - N/A   Overcast
9:56 PM 32.0 °F 26.4 °F 26.1 °F 79% 30.14 in 8.0 mi ESE 5.8 mph - N/A   Mostly Cloudy
10:56 PM 32.0 °F 26.4 °F 27.1 °F 82% 30.14 in 8.0 mi ESE 5.8 mph - N/A   Overcast
11:56 PM 32.0 °F 27.5 °F 27.1 °F 82% 30.12 in 8.0 mi East 4.6 mph - N/A   Overcast